Previsão horária em Barnaul

Hoje, 23 Julho, Sexta-feira

Tempo Temperatura Precipitação Vento Pressão Humidade
00:00 +18°C° 0 mm 3 m/s 735 mmHg 74%
01:00 +18°C° 0.1 mm 3 m/s 735 mmHg 78%
02:00 +18°C° 0.1 mm 2 m/s 735 mmHg 81%
03:00 +17°C° 0.1 mm 2 m/s 734 mmHg 85%
04:00 +17°C° 0.2 mm 2 m/s 734 mmHg 86%
05:00 +18°C° 0.2 mm 2 m/s 735 mmHg 88%
06:00 +18°C° 0 mm 2 m/s 734 mmHg 88%
07:00 +19°C° 0.1 mm 2 m/s 734 mmHg 85%
08:00 +20°C° 0.1 mm 2 m/s 734 mmHg 82%
09:00 +21°C° 0.1 mm 2 m/s 734 mmHg 79%
10:00 +23°C° 0.1 mm 2 m/s 734 mmHg 74%
11:00 +24°C° 0.1 mm 2 m/s 734 mmHg 68%
12:00 +26°C° 0 mm 2 m/s 734 mmHg 61%
13:00 +27°C° 0 mm 2 m/s 734 mmHg 59%
14:00 +28°C° 0 mm 2 m/s 734 mmHg 57%
15:00 +28°C° 0 mm 2 m/s 734 mmHg 54%
16:00 +27°C° 0.3 mm 2 m/s 734 mmHg 62%
17:00 +25°C° 0.3 mm 2 m/s 734 mmHg 70%
18:00 +24°C° 0 mm 2 m/s 734 mmHg 78%
19:00 +21°C° 0.4 mm 2 m/s 734 mmHg 84%
20:00 +20°C° 0.4 mm 2 m/s 734 mmHg 90%
21:00 +19°C° 0.4 mm 2 m/s 734 mmHg 95%
22:00 +19°C° 0.5 mm 2 m/s 734 mmHg 95%
23:00 +19°C° 0.5 mm 2 m/s 734 mmHg 95%

Amanhã, 24 Julho, Sábado

Tempo Temperatura Precipitação Vento Pressão Humidade
00:00 +19°C° 0.5 mm 2 m/s 734 mmHg 95%
01:00 +19°C° 0.1 mm 2 m/s 734 mmHg 95%
02:00 +19°C° 0.1 mm 2 m/s 734 mmHg 95%
03:00 +19°C° 0.1 mm 3 m/s 734 mmHg 95%
04:00 +19°C° 0.1 mm 3 m/s 734 mmHg 95%
05:00 +19°C° 0.1 mm 3 m/s 734 mmHg 95%
06:00 +19°C° 0.1 mm 2 m/s 734 mmHg 95%
07:00 +19°C° 0.2 mm 2 m/s 735 mmHg 94%
08:00 +20°C° 0.2 mm 2 m/s 735 mmHg 93%
09:00 +20°C° 0.2 mm 2 m/s 735 mmHg 92%
10:00 +21°C° 0.1 mm 2 m/s 735 mmHg 89%
11:00 +21°C° 0.1 mm 2 m/s 735 mmHg 86%
12:00 +23°C° 0.1 mm 2 m/s 735 mmHg 83%
13:00 +24°C° 0.2 mm 2 m/s 735 mmHg 78%
14:00 +25°C° 0.2 mm 3 m/s 735 mmHg 73%
15:00 +26°C° 0.2 mm 3 m/s 735 mmHg 67%
16:00 +26°C° 0.3 mm 3 m/s 735 mmHg 68%
17:00 +26°C° 0.3 mm 3 m/s 735 mmHg 68%
18:00 +26°C° 0.3 mm 3 m/s 736 mmHg 68%
19:00 +24°C° 0 mm 2 m/s 736 mmHg 72%
20:00 +23°C° 0 mm 2 m/s 736 mmHg 77%
21:00 +21°C° 0 mm 1 m/s 736 mmHg 81%
22:00 +20°C° 0 mm 1 m/s 736 mmHg 82%
23:00 +20°C° 0 mm 1 m/s 736 mmHg 82%

Depois de amanhã, 25 Julho, Domingo

Tempo Temperatura Precipitação Vento Pressão Humidade
00:00 +19°C° 0 mm 1 m/s 736 mmHg 83%
01:00 +19°C° 0 mm 1 m/s 736 mmHg 84%
02:00 +18°C° 0 mm 1 m/s 736 mmHg 84%
03:00 +18°C° 0 mm 1 m/s 735 mmHg 84%
04:00 +18°C° 0 mm 1 m/s 736 mmHg 83%
05:00 +19°C° 0 mm 1 m/s 736 mmHg 81%
06:00 +19°C° 0 mm 1 m/s 736 mmHg 80%
07:00 +21°C° 0 mm 1 m/s 736 mmHg 73%
08:00 +23°C° 0 mm 1 m/s 736 mmHg 66%
09:00 +25°C° 0 mm 1 m/s 736 mmHg 58%
10:00 +26°C° 0 mm 2 m/s 736 mmHg 54%
11:00 +28°C° 0 mm 2 m/s 736 mmHg 50%
12:00 +29°C° 0 mm 2 m/s 735 mmHg 45%
13:00 +30°C° 0 mm 3 m/s 735 mmHg 44%
14:00 +30°C° 0 mm 3 m/s 735 mmHg 42%
15:00 +31°C° 0 mm 3 m/s 735 mmHg 41%
16:00 +31°C° 0 mm 3 m/s 735 mmHg 43%
17:00 +30°C° 0 mm 3 m/s 734 mmHg 46%
18:00 +30°C° 0 mm 2 m/s 734 mmHg 48%
19:00 +28°C° 0 mm 2 m/s 734 mmHg 54%
20:00 +26°C° 0 mm 2 m/s 734 mmHg 60%
21:00 +24°C° 0 mm 2 m/s 733 mmHg 66%
22:00 +23°C° 0 mm 2 m/s 733 mmHg 68%
23:00 +21°C° 0 mm 2 m/s 733 mmHg 70%

26 Julho, Segunda-feira

Tempo Temperatura Precipitação Vento Pressão Humidade
00:00 +21°C° 0 mm 2 m/s 733 mmHg 71%
01:00 +20°C° 0 mm 2 m/s 732 mmHg 72%
02:00 +20°C° 0 mm 2 m/s 732 mmHg 73%
03:00 +19°C° 0 mm 2 m/s 732 mmHg 75%
04:00 +20°C° 0 mm 2 m/s 732 mmHg 75%
05:00 +20°C° 0 mm 2 m/s 732 mmHg 75%
06:00 +20°C° 0 mm 2 m/s 732 mmHg 75%
07:00 +21°C° 0 mm 3 m/s 732 mmHg 71%
08:00 +23°C° 0 mm 4 m/s 732 mmHg 67%
09:00 +25°C° 0 mm 4 m/s 732 mmHg 62%
10:00 +27°C° 0 mm 5 m/s 732 mmHg 57%
11:00 +28°C° 0 mm 6 m/s 732 mmHg 51%
12:00 +30°C° 0 mm 7 m/s 732 mmHg 46%
13:00 +29°C° 0 mm 8 m/s 732 mmHg 48%
14:00 +29°C° 0 mm 8 m/s 732 mmHg 50%
15:00 +28°C° 0 mm 9 m/s 732 mmHg 52%
16:00 +27°C° 0.1 mm 8 m/s 733 mmHg 60%
17:00 +24°C° 0.1 mm 8 m/s 733 mmHg 69%
18:00 +22°C° 0.1 mm 7 m/s 733 mmHg 77%
19:00 +21°C° 0.1 mm 7 m/s 734 mmHg 75%
20:00 +20°C° 0.1 mm 6 m/s 734 mmHg 73%
21:00 +19°C° 0.1 mm 6 m/s 735 mmHg 71%
22:00 +19°C° 0 mm 6 m/s 735 mmHg 73%
23:00 +17°C° 0 mm 5 m/s 735 mmHg 74%

27 Julho, Terça-feira

Tempo Temperatura Precipitação Vento Pressão Humidade
00:00 +16°C° 0 mm 5 m/s 736 mmHg 75%
01:00 +16°C° 0 mm 5 m/s 736 mmHg 79%
02:00 +15°C° 0 mm 5 m/s 736 mmHg 82%
03:00 +15°C° 0 mm 4 m/s 736 mmHg 85%
04:00 +15°C° 0 mm 4 m/s 736 mmHg 83%
05:00 +15°C° 0 mm 5 m/s 737 mmHg 80%
06:00 +15°C° 0 mm 5 m/s 737 mmHg 78%
07:00 +15°C° 0 mm 5 m/s 737 mmHg 74%
08:00 +16°C° 0 mm 5 m/s 738 mmHg 71%
09:00 +16°C° 0 mm 5 m/s 738 mmHg 67%
10:00 +19°C° 0 mm 4 m/s 738 mmHg 59%
11:00 +20°C° 0 mm 4 m/s 738 mmHg 51%
12:00 +22°C° 0 mm 4 m/s 738 mmHg 43%
13:00 +21°C° 0 mm 4 m/s 738 mmHg 45%
14:00 +20°C° 0 mm 4 m/s 738 mmHg 47%
15:00 +20°C° 0 mm 4 m/s 738 mmHg 49%
16:00 +20°C° 0 mm 3 m/s 739 mmHg 50%
17:00 +19°C° 0 mm 3 m/s 739 mmHg 50%
18:00 +19°C° 0 mm 3 m/s 739 mmHg 51%
19:00 +18°C° 0 mm 2 m/s 739 mmHg 55%
20:00 +17°C° 0 mm 2 m/s 739 mmHg 59%
21:00 +16°C° 0 mm 1 m/s 739 mmHg 63%
22:00 +16°C° 0 mm 1 m/s 739 mmHg 64%
23:00 +16°C° 0 mm 1 m/s 739 mmHg 65%

28 Julho, Quarta-feira

Tempo Temperatura Precipitação Vento Pressão Humidade
00:00 +15°C° 0 mm 1 m/s 739 mmHg 66%
01:00 +15°C° 0 mm 1 m/s 739 mmHg 66%
02:00 +15°C° 0 mm 1 m/s 739 mmHg 67%
03:00 +15°C° 0 mm 1 m/s 739 mmHg 68%
04:00 +15°C° 0 mm 1 m/s 739 mmHg 69%
05:00 +15°C° 0 mm 2 m/s 739 mmHg 70%
06:00 +14°C° 0 mm 2 m/s 739 mmHg 70%
07:00 +15°C° 0 mm 2 m/s 739 mmHg 68%
08:00 +16°C° 0 mm 2 m/s 739 mmHg 65%
09:00 +16°C° 0 mm 2 m/s 739 mmHg 63%
10:00 +18°C° 0 mm 2 m/s 739 mmHg 55%
11:00 +19°C° 0 mm 2 m/s 739 mmHg 48%
12:00 +20°C° 0 mm 2 m/s 739 mmHg 41%
13:00 +20°C° 0 mm 3 m/s 739 mmHg 41%
14:00 +21°C° 0 mm 3 m/s 739 mmHg 41%
15:00 +21°C° 0 mm 3 m/s 739 mmHg 40%
16:00 +20°C° 0 mm 3 m/s 738 mmHg 43%
17:00 +20°C° 0 mm 3 m/s 738 mmHg 46%
18:00 +19°C° 0 mm 2 m/s 738 mmHg 48%
19:00 +18°C° 0 mm 2 m/s 738 mmHg 50%
20:00 +17°C° 0 mm 2 m/s 739 mmHg 51%
21:00 +16°C° 0 mm 2 m/s 739 mmHg 53%
22:00 +16°C° 0 mm 1 m/s 739 mmHg 54%
23:00 +16°C° 0 mm 1 m/s 739 mmHg 55%
Mostrar mais